When you browse on this site, cookies collect data to enhance your experience and personalize the content and advertising you see.
Visit our Privacy Policy to learn more. By continuing to use the site, you agree to this use of cookies and data.
  • In Czech Republic
  • List of Countries
  • For 7 days
  • Water Temperature
  • Satellite Maps
  • Weather Map
  • Weather Widgets
  • user-avatar
    Login

    Hourly Weather Ostrow

    Today, 18 February, Monday

    Time Temperature Precipitation Wind Pressure Humidity
    00:00 +5°C° 0 mm 1 mps 751 mmHg 82%
    01:00 +4°C° 0 mm 1 mps 750 mmHg 84%
    02:00 +4°C° 0 mm 1 mps 750 mmHg 85%
    03:00 +4°C° 0 mm 1 mps 750 mmHg 86%
    04:00 +3°C° 0 mm 1 mps 750 mmHg 86%
    05:00 +3°C° 0 mm 1 mps 750 mmHg 86%
    06:00 +3°C° 0 mm 1 mps 750 mmHg 87%
    07:00 +3°C° 0 mm 1 mps 750 mmHg 86%
    08:00 +4°C° 0 mm 1 mps 750 mmHg 79%
    09:00 +6°C° 0 mm 1 mps 750 mmHg 73%
    10:00 +7°C° 0 mm 1 mps 750 mmHg 66%
    11:00 +8°C° 0 mm 1 mps 750 mmHg 62%
    12:00 +10°C° 0 mm 1 mps 749 mmHg 58%
    13:00 +11°C° 0 mm 1 mps 749 mmHg 53%
    14:00 +11°C° 0 mm 1 mps 749 mmHg 56%
    15:00 +10°C° 0 mm 1 mps 749 mmHg 59%
    16:00 +10°C° 0 mm 1 mps 748 mmHg 62%
    17:00 +8°C° 0 mm 2 mps 748 mmHg 68%
    18:00 +6°C° 0 mm 2 mps 748 mmHg 75%
    19:00 +5°C° 0 mm 2 mps 748 mmHg 81%
    20:00 +4°C° 0 mm 2 mps 748 mmHg 82%
    21:00 +4°C° 0 mm 2 mps 748 mmHg 84%
    22:00 +3°C° 0 mm 2 mps 748 mmHg 85%
    23:00 +3°C° 0 mm 2 mps 748 mmHg 86%

    Tomorrow, 19 February, Tuesday

    Time Temperature Precipitation Wind Pressure Humidity
    00:00 +3°C° 0 mm 2 mps 748 mmHg 86%
    01:00 +2°C° 0 mm 2 mps 748 mmHg 87%
    02:00 +2°C° 0 mm 2 mps 747 mmHg 87%
    03:00 +2°C° 0 mm 2 mps 747 mmHg 87%
    04:00 +2°C° 0 mm 2 mps 747 mmHg 87%
    05:00 +1°C° 0 mm 3 mps 747 mmHg 87%
    06:00 0°C° 0 mm 3 mps 746 mmHg 88%
    07:00 0°C° 0 mm 3 mps 746 mmHg 88%
    08:00 +2°C° 0 mm 3 mps 746 mmHg 81%
    09:00 +4°C° 0 mm 3 mps 746 mmHg 73%
    10:00 +5°C° 0 mm 4 mps 746 mmHg 66%
    11:00 +8°C° 0 mm 3 mps 745 mmHg 62%
    12:00 +9°C° 0 mm 3 mps 745 mmHg 58%
    13:00 +10°C° 0 mm 3 mps 745 mmHg 55%
    14:00 +10°C° 0 mm 3 mps 745 mmHg 57%
    15:00 +9°C° 0 mm 3 mps 744 mmHg 59%
    16:00 +9°C° 0 mm 3 mps 744 mmHg 62%
    17:00 +8°C° 0 mm 3 mps 744 mmHg 67%
    18:00 +7°C° 0 mm 3 mps 744 mmHg 72%
    19:00 +5°C° 0 mm 3 mps 744 mmHg 77%
    20:00 +4°C° 0 mm 3 mps 744 mmHg 79%
    21:00 +4°C° 0 mm 3 mps 744 mmHg 81%
    22:00 +3°C° 0 mm 3 mps 744 mmHg 83%
    23:00 +3°C° 0 mm 3 mps 744 mmHg 82%

    Day after tomorrow, 20 February, Wednesday

    Time Temperature Precipitation Wind Pressure Humidity
    00:00 +3°C° 0 mm 3 mps 745 mmHg 82%
    01:00 +3°C° 0 mm 3 mps 745 mmHg 81%
    02:00 +3°C° 0.3 mm 4 mps 745 mmHg 84%
    03:00 +3°C° 0.3 mm 4 mps 745 mmHg 86%
    04:00 +3°C° 0.3 mm 5 mps 744 mmHg 88%
    05:00 +2°C° 0 mm 5 mps 745 mmHg 89%
    06:00 +2°C° 0 mm 5 mps 745 mmHg 90%
    07:00 +1°C° 0 mm 5 mps 745 mmHg 91%
    08:00 +2°C° 0.1 mm 5 mps 746 mmHg 87%
    09:00 +3°C° 0.1 mm 6 mps 746 mmHg 83%
    10:00 +3°C° 0.1 mm 6 mps 746 mmHg 79%
    11:00 +4°C° 0 mm 6 mps 746 mmHg 74%
    12:00 +4°C° 0 mm 6 mps 747 mmHg 69%
    13:00 +5°C° 0 mm 6 mps 747 mmHg 64%
    14:00 +5°C° 0.1 mm 6 mps 747 mmHg 64%
    15:00 +6°C° 0.1 mm 5 mps 747 mmHg 64%
    16:00 +6°C° 0.1 mm 5 mps 747 mmHg 64%
    17:00 +5°C° 0.1 mm 4 mps 748 mmHg 67%
    18:00 +5°C° 0.1 mm 4 mps 748 mmHg 70%
    19:00 +4°C° 0.1 mm 4 mps 748 mmHg 73%
    20:00 +4°C° 0 mm 4 mps 749 mmHg 74%
    21:00 +4°C° 0 mm 4 mps 749 mmHg 74%
    22:00 +4°C° 0 mm 3 mps 749 mmHg 75%
    23:00 +4°C° 0 mm 4 mps 749 mmHg 75%

    21 February, Thursday

    Time Temperature Precipitation Wind Pressure Humidity
    00:00 +4°C° 0 mm 4 mps 749 mmHg 75%
    01:00 +4°C° 0 mm 4 mps 749 mmHg 76%
    02:00 +4°C° 0 mm 4 mps 749 mmHg 76%
    03:00 +4°C° 0 mm 4 mps 749 mmHg 75%
    04:00 +4°C° 0 mm 4 mps 749 mmHg 75%
    05:00 +3°C° 0 mm 4 mps 749 mmHg 77%
    06:00 +3°C° 0 mm 4 mps 749 mmHg 78%
    07:00 +3°C° 0 mm 4 mps 749 mmHg 79%
    08:00 +3°C° 0.3 mm 4 mps 749 mmHg 78%
    09:00 +3°C° 0.3 mm 5 mps 749 mmHg 76%
    10:00 +5°C° 0.3 mm 5 mps 749 mmHg 74%
    11:00 +5°C° 0.9 mm 5 mps 748 mmHg 76%
    12:00 +5°C° 0.9 mm 5 mps 748 mmHg 77%
    13:00 +5°C° 0.9 mm 5 mps 748 mmHg 78%
    14:00 +5°C° 0.7 mm 5 mps 748 mmHg 81%
    15:00 +5°C° 0.7 mm 5 mps 748 mmHg 83%
    16:00 +4°C° 0.7 mm 6 mps 748 mmHg 86%
    17:00 +4°C° 0.7 mm 6 mps 748 mmHg 87%
    18:00 +4°C° 0.7 mm 6 mps 748 mmHg 88%
    19:00 +5°C° 0.7 mm 5 mps 749 mmHg 89%
    20:00 +5°C° 0.2 mm 5 mps 749 mmHg 90%
    21:00 +5°C° 0.2 mm 5 mps 749 mmHg 91%
    22:00 +5°C° 0.2 mm 5 mps 749 mmHg 91%
    23:00 +5°C° 0.1 mm 5 mps 749 mmHg 92%

    22 February, Friday

    Time Temperature Precipitation Wind Pressure Humidity
    00:00 +5°C° 0.1 mm 5 mps 749 mmHg 92%
    01:00 +5°C° 0.1 mm 5 mps 749 mmHg 92%
    02:00 +5°C° 0.5 mm 5 mps 749 mmHg 91%
    03:00 +4°C° 0.5 mm 6 mps 749 mmHg 90%
    04:00 +4°C° 0.5 mm 6 mps 749 mmHg 89%
    05:00 +3°C° 0.4 mm 6 mps 750 mmHg 89%
    06:00 +3°C° 0.4 mm 6 mps 751 mmHg 89%
    07:00 +3°C° 0.4 mm 6 mps 751 mmHg 89%
    08:00 +2°C° 0.1 mm 6 mps 753 mmHg 85%
    09:00 +1°C° 0.1 mm 6 mps 754 mmHg 80%
    10:00 -1°C° 0.1 mm 6 mps 755 mmHg 75%
    11:00 +1°C° 0 mm 6 mps 756 mmHg 71%
    12:00 +1°C° 0 mm 5 mps 756 mmHg 66%
    13:00 +1°C° 0 mm 5 mps 757 mmHg 62%
    14:00 0°C° 0 mm 5 mps 758 mmHg 60%
    15:00 0°C° 0 mm 5 mps 758 mmHg 57%
    16:00 0°C° 0 mm 5 mps 759 mmHg 55%
    17:00 -1°C° 0 mm 4 mps 760 mmHg 58%
    18:00 -2°C° 0 mm 4 mps 760 mmHg 60%
    19:00 -2°C° 0 mm 3 mps 761 mmHg 63%
    20:00 -2°C° 0 mm 3 mps 762 mmHg 62%
    21:00 -2°C° 0 mm 3 mps 762 mmHg 60%
    22:00 -2°C° 0 mm 2 mps 762 mmHg 59%
    23:00 -2°C° 0 mm 2 mps 763 mmHg 57%

    23 February, Saturday

    Time Temperature Precipitation Wind Pressure Humidity
    00:00 0°C° 0 mm 1 mps 763 mmHg 56%
    01:00 0°C° 0 mm 1 mps 763 mmHg 55%
    02:00 0°C° 0 mm 1 mps 763 mmHg 55%
    03:00 -1°C° 0 mm 1 mps 763 mmHg 55%
    04:00 -2°C° 0 mm 0 mps 763 mmHg 56%
    05:00 -1°C° 0 mm 1 mps 762 mmHg 54%
    06:00 0°C° 0 mm 1 mps 762 mmHg 53%
    07:00 -2°C° 0 mm 2 mps 762 mmHg 52%
    08:00 -2°C° 0 mm 2 mps 761 mmHg 47%
    09:00 -1°C° 0 mm 2 mps 761 mmHg 42%
    10:00 +1°C° 0 mm 2 mps 761 mmHg 38%
    11:00 +1°C° 0 mm 3 mps 760 mmHg 36%
    12:00 +1°C° 0 mm 4 mps 759 mmHg 35%
    13:00 +3°C° 0 mm 4 mps 759 mmHg 34%
    14:00 +3°C° 0 mm 4 mps 758 mmHg 41%
    15:00 +3°C° 0 mm 4 mps 757 mmHg 48%
    16:00 +3°C° 0 mm 4 mps 757 mmHg 55%
    17:00 +2°C° 0.1 mm 5 mps 756 mmHg 64%
    18:00 +2°C° 0.1 mm 5 mps 756 mmHg 72%
    19:00 +2°C° 0.1 mm 5 mps 756 mmHg 80%
    20:00 +2°C° 0 mm 5 mps 756 mmHg 85%
    21:00 +2°C° 0 mm 5 mps 756 mmHg 89%
    22:00 +3°C° 0 mm 6 mps 755 mmHg 93%
    23:00 +2°C° 0 mm 5 mps 755 mmHg 94%
    Show more